When you browse on this site, cookies collect data to enhance your experience and personalize the content and advertising you see.
Visit our Privacy Policy to learn more. By continuing to use the site, you agree to this use of cookies and data.
  • In Denmark
  • List of Countries
  • For 7 days
  • Water Temperature
  • Satellite Maps
  • Weather Map
  • Weather Widgets
  • user-avatar
    Login

    Hourly Weather Solden

    Today, 19 December, Wednesday

    Time Temperature Precipitation Wind Pressure Humidity
    00:00 -10°C° 0 mm 2 mps 580 mmHg 50%
    01:00 -10°C° 0 mm 2 mps 580 mmHg 49%
    02:00 -10°C° 0 mm 2 mps 580 mmHg 50%
    03:00 -10°C° 0 mm 2 mps 580 mmHg 50%
    04:00 -10°C° 0 mm 2 mps 580 mmHg 50%
    05:00 -10°C° 0 mm 2 mps 580 mmHg 51%
    06:00 -9°C° 0 mm 2 mps 580 mmHg 52%
    07:00 -9°C° 0 mm 2 mps 580 mmHg 53%
    08:00 -8°C° 0 mm 2 mps 580 mmHg 55%
    09:00 -6°C° 0 mm 1 mps 581 mmHg 56%
    10:00 -6°C° 0 mm 1 mps 581 mmHg 57%
    11:00 -6°C° 0 mm 2 mps 581 mmHg 58%
    12:00 -5°C° 0 mm 2 mps 581 mmHg 60%
    13:00 -5°C° 0 mm 2 mps 581 mmHg 61%
    14:00 -6°C° 0 mm 2 mps 580 mmHg 65%
    15:00 -7°C° 0 mm 2 mps 580 mmHg 70%
    16:00 -7°C° 0 mm 1 mps 579 mmHg 75%
    17:00 -7°C° 0 mm 1 mps 579 mmHg 77%
    18:00 -9°C° 0 mm 2 mps 578 mmHg 79%
    19:00 -10°C° 0 mm 2 mps 578 mmHg 80%
    20:00 -8°C° 0.3 mm 1 mps 578 mmHg 82%
    21:00 -8°C° 0.3 mm 1 mps 578 mmHg 84%
    22:00 -8°C° 0.3 mm 1 mps 579 mmHg 86%
    23:00 -7°C° 0.9 mm 1 mps 579 mmHg 89%

    Tomorrow, 20 December, Thursday

    Time Temperature Precipitation Wind Pressure Humidity
    00:00 -7°C° 0.9 mm 1 mps 579 mmHg 91%
    01:00 -7°C° 0.9 mm 1 mps 579 mmHg 93%
    02:00 -7°C° 0.6 mm 1 mps 579 mmHg 93%
    03:00 -7°C° 0.6 mm 1 mps 579 mmHg 92%
    04:00 -7°C° 0.6 mm 1 mps 579 mmHg 92%
    05:00 -7°C° 0.3 mm 1 mps 579 mmHg 91%
    06:00 -7°C° 0.3 mm 1 mps 579 mmHg 91%
    07:00 -7°C° 0.3 mm 1 mps 579 mmHg 90%
    08:00 -7°C° 0.1 mm 1 mps 579 mmHg 88%
    09:00 -6°C° 0.1 mm 1 mps 580 mmHg 86%
    10:00 -6°C° 0.1 mm 1 mps 580 mmHg 84%
    11:00 -4°C° 0.1 mm 1 mps 581 mmHg 82%
    12:00 -3°C° 0.1 mm 1 mps 581 mmHg 79%
    13:00 -2°C° 0.1 mm 1 mps 581 mmHg 77%
    14:00 -3°C° 0.2 mm 1 mps 581 mmHg 80%
    15:00 -4°C° 0.2 mm 1 mps 581 mmHg 83%
    16:00 -6°C° 0.2 mm 1 mps 580 mmHg 86%
    17:00 -7°C° 0 mm 1 mps 580 mmHg 87%
    18:00 -8°C° 0 mm 1 mps 580 mmHg 88%
    19:00 -9°C° 0 mm 1 mps 580 mmHg 88%
    20:00 -9°C° 0 mm 1 mps 580 mmHg 87%
    21:00 -10°C° 0 mm 1 mps 580 mmHg 85%
    22:00 -10°C° 0 mm 1 mps 580 mmHg 83%
    23:00 -10°C° 0 mm 1 mps 581 mmHg 81%

    Day after tomorrow, 21 December, Friday

    Time Temperature Precipitation Wind Pressure Humidity
    00:00 -10°C° 0 mm 1 mps 581 mmHg 80%
    01:00 -13°C° 0 mm 2 mps 581 mmHg 78%
    02:00 -12°C° 0 mm 2 mps 581 mmHg 77%
    03:00 -12°C° 0 mm 2 mps 581 mmHg 75%
    04:00 -12°C° 0 mm 2 mps 581 mmHg 74%
    05:00 -12°C° 0 mm 2 mps 581 mmHg 73%
    06:00 -12°C° 0 mm 2 mps 581 mmHg 72%
    07:00 -10°C° 0 mm 2 mps 581 mmHg 71%
    08:00 -9°C° 0 mm 2 mps 581 mmHg 70%
    09:00 -8°C° 0 mm 2 mps 582 mmHg 70%
    10:00 -7°C° 0 mm 2 mps 582 mmHg 69%
    11:00 -6°C° 0 mm 2 mps 582 mmHg 69%
    12:00 -5°C° 0 mm 2 mps 583 mmHg 69%
    13:00 -4°C° 0 mm 2 mps 583 mmHg 70%
    14:00 -4°C° 0 mm 2 mps 582 mmHg 72%
    15:00 -5°C° 0 mm 2 mps 582 mmHg 75%
    16:00 -5°C° 0 mm 2 mps 581 mmHg 78%
    17:00 -5°C° 0.1 mm 2 mps 581 mmHg 76%
    18:00 -6°C° 0.1 mm 2 mps 581 mmHg 75%
    19:00 -6°C° 0.1 mm 2 mps 581 mmHg 73%
    20:00 -6°C° 0 mm 2 mps 581 mmHg 73%
    21:00 -5°C° 0 mm 2 mps 582 mmHg 73%
    22:00 -5°C° 0 mm 2 mps 582 mmHg 73%
    23:00 -5°C° 0.1 mm 2 mps 582 mmHg 74%

    22 December, Saturday

    Time Temperature Precipitation Wind Pressure Humidity
    00:00 -3°C° 0.1 mm 1 mps 582 mmHg 75%
    01:00 -2°C° 0.1 mm 1 mps 582 mmHg 76%
    02:00 -2°C° 0.1 mm 1 mps 582 mmHg 77%
    03:00 -2°C° 0.1 mm 1 mps 582 mmHg 78%
    04:00 -2°C° 0.1 mm 1 mps 582 mmHg 79%
    05:00 -2°C° 0.1 mm 1 mps 581 mmHg 79%
    06:00 -5°C° 0.1 mm 2 mps 581 mmHg 79%
    07:00 -5°C° 0.1 mm 2 mps 581 mmHg 80%
    08:00 -4°C° 0 mm 2 mps 582 mmHg 79%
    09:00 -3°C° 0 mm 2 mps 582 mmHg 78%
    10:00 -2°C° 0 mm 2 mps 583 mmHg 77%
    11:00 -2°C° 0 mm 2 mps 583 mmHg 79%
    12:00 +1°C° 0 mm 1 mps 583 mmHg 82%
    13:00 +2°C° 0 mm 1 mps 583 mmHg 84%
    14:00 -1°C° 0 mm 2 mps 583 mmHg 85%
    15:00 -2°C° 0 mm 2 mps 582 mmHg 86%
    16:00 -3°C° 0 mm 2 mps 582 mmHg 87%
    17:00 -3°C° 0 mm 2 mps 582 mmHg 86%
    18:00 -4°C° 0 mm 2 mps 582 mmHg 84%
    19:00 -5°C° 0 mm 2 mps 582 mmHg 83%
    20:00 -5°C° 0 mm 2 mps 582 mmHg 83%
    21:00 -5°C° 0 mm 2 mps 582 mmHg 82%
    22:00 -5°C° 0 mm 2 mps 582 mmHg 82%
    23:00 -5°C° 0 mm 2 mps 582 mmHg 82%

    23 December, Sunday

    Time Temperature Precipitation Wind Pressure Humidity
    00:00 -5°C° 0 mm 2 mps 582 mmHg 82%
    01:00 -6°C° 0 mm 2 mps 582 mmHg 83%
    02:00 -6°C° 0 mm 2 mps 582 mmHg 82%
    03:00 -6°C° 0 mm 2 mps 582 mmHg 82%
    04:00 -6°C° 0 mm 2 mps 582 mmHg 82%
    05:00 -6°C° 0 mm 2 mps 582 mmHg 81%
    06:00 -6°C° 0 mm 2 mps 582 mmHg 81%
    07:00 -6°C° 0 mm 2 mps 582 mmHg 80%
    08:00 -5°C° 0 mm 2 mps 583 mmHg 79%
    09:00 -4°C° 0 mm 2 mps 584 mmHg 78%
    10:00 -3°C° 0 mm 2 mps 585 mmHg 78%
    11:00 0°C° 0 mm 1 mps 585 mmHg 79%
    12:00 +1°C° 0 mm 1 mps 585 mmHg 80%
    13:00 +2°C° 0 mm 1 mps 585 mmHg 81%
    14:00 +2°C° 0.1 mm 1 mps 585 mmHg 81%
    15:00 +1°C° 0.1 mm 1 mps 584 mmHg 81%
    16:00 0°C° 0.1 mm 1 mps 584 mmHg 81%
    17:00 0°C° 0.1 mm 1 mps 584 mmHg 81%
    18:00 -3°C° 0.1 mm 2 mps 584 mmHg 80%
    19:00 -3°C° 0.1 mm 2 mps 584 mmHg 80%
    20:00 -4°C° 0 mm 2 mps 584 mmHg 80%
    21:00 -4°C° 0 mm 2 mps 583 mmHg 80%
    22:00 -4°C° 0 mm 2 mps 583 mmHg 80%
    23:00 -4°C° 0 mm 2 mps 583 mmHg 79%

    24 December, Monday

    Time Temperature Precipitation Wind Pressure Humidity
    00:00 -4°C° 0 mm 2 mps 583 mmHg 79%
    01:00 -4°C° 0 mm 2 mps 583 mmHg 79%
    02:00 -4°C° 0 mm 2 mps 583 mmHg 79%
    03:00 -4°C° 0 mm 2 mps 583 mmHg 78%
    04:00 -4°C° 0 mm 2 mps 583 mmHg 78%
    05:00 -4°C° 0 mm 2 mps 583 mmHg 78%
    06:00 -4°C° 0 mm 2 mps 583 mmHg 78%
    07:00 -3°C° 0 mm 2 mps 583 mmHg 78%
    08:00 -3°C° 0.1 mm 2 mps 583 mmHg 78%
    09:00 -2°C° 0.1 mm 2 mps 584 mmHg 79%
    10:00 -1°C° 0.1 mm 2 mps 584 mmHg 79%
    11:00 +1°C° 0.1 mm 2 mps 584 mmHg 81%
    12:00 +3°C° 0.1 mm 1 mps 584 mmHg 82%
    13:00 +3°C° 0.1 mm 1 mps 584 mmHg 84%
    14:00 +3°C° 0.1 mm 1 mps 584 mmHg 85%
    15:00 +2°C° 0.1 mm 1 mps 583 mmHg 85%
    16:00 +1°C° 0.1 mm 1 mps 583 mmHg 86%
    17:00 +1°C° 0.2 mm 1 mps 583 mmHg 86%
    18:00 -2°C° 0.2 mm 2 mps 583 mmHg 87%
    19:00 -2°C° 0.2 mm 2 mps 582 mmHg 87%
    20:00 -2°C° 0.1 mm 2 mps 582 mmHg 87%
    21:00 -3°C° 0.1 mm 2 mps 582 mmHg 87%
    22:00 -1°C° 0.1 mm 1 mps 582 mmHg 87%
    23:00 -1°C° 0.1 mm 1 mps 582 mmHg 87%
    Show more